Flag for Germany Weather past 2 weeks in Bayreuth, Bavaria, Germany

Now
48 °F

Mostly cloudy.


Feels Like: 48 °F
Forecast: 30 / 57 °F
Wind: 2 mph from Northwest

Location: Grafenwoehr

Current Time: Apr 28, 2015 at 6:38:29 PM

Latest Report: Apr 28, 2015 at 5:58 PM


Visibility: N/A

Pressure: 29.99 "Hg

Humidity: 66%

Dew point: 38 °F

Location of BayreuthLocation

Historic Weather in Bayreuth — Graph

°F

Bayreuth temperature yesterday

Maximum temperature yesterday: 72 °F (at 3:58 PM)
Minimum temperature yesterday: 44 °F (at 2:58 AM)
Average temperature yesterday: 57 °F

Past Weeks' High & Low Weather Summary

 TemperatureHumidityPressure
High73 °F (Apr 15, 4:58 PM)100% (Apr 21, 6:58 AM)30.45 "Hg (Apr 21, 6:58 AM)
Low24 °F (Apr 19, 6:58 AM)21% (Apr 21, 6:58 PM)29.50 "Hg (Apr 27, 4:58 PM)
Average49 °F67%30.04 "Hg
* Reported Apr 13 4:58 PM — Apr 28 4:58 PM, Bayreuth, Weather by CustomWeather, © 2015

Note: Actual official high and low records may vary slightly from our data, if they occured in-between our weather recording intervals... More about our weather records

Advertising

Bayreuth weather history for previous 24 hours

 ConditionsComfort  
Time TempWeatherWind HumidityBarometerVisibility
4:58 PM
Tue, Apr 28
48 °FCloudy.6 mph62%30.01 "HgN/A
3:58 PM47 °FBroken clouds.10 mph71%30.00 "HgN/A
3:04 PM43 °FMostly cloudy.12 mph81%29.96 "HgN/A
2:58 PM43 °FMostly cloudy.9 mph79%29.99 "HgN/A
2:56 PM43 °FOvercast.9 mph81%29.96 "HgN/A
2:01 PM43 °FOvercast.8 mph87%29.92 "HgN/A
1:03 PM41 °FLight rain. Overcast.10 mph87%29.89 "HgN/A
12:58 PM42 °FOvercast.14 mph86%29.92 "HgN/A
11:58 AM41 °FLight rain. Mostly cloudy.13 mph87%29.89 "HgN/A
10:58 AM41 °FDrizzle. Mostly cloudy.7 mph89%29.85 "HgN/A
9:58 AM41 °FLight rain. Overcast.8 mph93%29.80 "HgN/A
9:45 AM41 °FLight rain. Overcast.10 mph93%29.77 "HgN/A
8:58 AM42 °FLight rain. Mostly cloudy.10 mph93%29.76 "HgN/A
8:52 AM43 °FLight rain. Overcast.10 mph93%29.74 "HgN/A
7:58 AM43 °FLight rain. Mostly cloudy.6 mph87%29.72 "HgN/A
7:55 AM42 °FLight rain. Mostly cloudy.7 mph93%29.72 "HgN/A
6:55 AM43 °FLight rain. More clouds than sun.7 mph93%29.68 "Hg6 mi
5:55 AM43 °FLight rain. Fog.5 mph95%29.65 "Hg6 mi
4:58 AM45 °FLight rain. Mostly cloudy.3 mph93%29.62 "HgN/A
3:58 AM45 °FLight rain. Mostly cloudy.2 mph93%29.62 "HgN/A
3:01 AM45 °FRain. Fog.7 mph93%29.63 "Hg5 mi
1:58 AM46 °FLight rain. Overcast.7 mph87%29.63 "HgN/A
1:01 AM48 °FOvercast.5 mph82%29.60 "HgN/A
12:58 AM48 °FOvercast.6 mph84%29.59 "HgN/A
8:58 PM
Mon, Apr 27
54 °FScattered clouds.7 mph82%29.56 "HgN/A
7:58 PM59 °FScattered clouds.6 mph77%29.54 "HgN/A
6:58 PM59 °FPartly sunny.6 mph77%29.56 "HgN/A
Weather by CustomWeather, © 2015

See weather overviewHow to use our weather pages